QPF
0.00 0.02 0.05 0.06 0.08 0.09 0.07 0.05 0.04 0.03 0.04 0.04 0.04 0.04 0.04 0.04 0.06 0.07 0.06 0.06 0.07 0.08 0.09 0.10 0.07 0.07 0.07 0.06 0.04 0.02 0.02 0.02 0.03 0.02 0.03 0.03 0.03 0.03 0.03 0.02 0.01 0.01 0.03
0.01 0.02 0.04 0.05 0.07 0.07 0.07 0.07 0.06 0.05 0.04 0.04 0.04 0.05 0.05 0.05 0.05 0.06 0.05 0.05 0.06 0.07 0.08 0.05 0.04 0.06 0.07 0.05 0.03 0.02 0.02 0.02 0.02 0.01 0.01 0.01 0.03 0.04 0.03 0.02 0.02 0.03 0.03
0.01 0.01 0.03 0.04 0.06 0.06 0.06 0.06 0.05 0.05 0.05 0.04 0.04 0.05 0.06 0.06 0.06 0.06 0.06 0.06 0.07 0.06 0.05 0.04 0.04 0.06 0.07 0.05 0.03 0.02 0.02 0.02 0.01 0.00 0.00 0.00 0.01 0.04 0.04 0.03 0.02 0.03 0.03
0.02 0.02 0.02 0.02 0.03 0.04 0.06 0.05 0.04 0.03 0.03 0.02 0.03 0.03 0.05 0.06 0.06 0.06 0.05 0.05 0.06 0.06 0.05 0.04 0.03 0.03 0.03 0.04 0.04 0.03 0.02 0.02 0.02 0.01 0.00 0.00 0.01 0.05 0.06 0.05 0.03 0.03 0.03
0.01 0.01 0.02 0.02 0.02 0.02 0.02 0.03 0.03 0.02 0.02 0.02 0.02 0.03 0.04 0.06 0.08 0.10 0.07 0.05 0.06 0.05 0.03 0.03 0.03 0.03 0.02 0.02 0.03 0.03 0.02 0.01 0.01 0.01 0.00 0.00 0.01 0.05 0.06 0.06 0.04 0.03 0.02
0.01 0.01 0.02 0.02 0.02 0.02 0.01 0.02 0.02 0.02 0.02 0.02 0.02 0.04 0.05 0.07 0.07 0.09 0.11 0.09 0.08 0.05 0.03 0.03 0.03 0.02 0.02 0.02 0.02 0.02 0.02 0.01 0.00 0.01 0.00 0.00 0.01 0.04 0.05 0.05 0.05 0.04 0.03
0.00 0.01 0.01 0.02 0.02 0.02 0.02 0.02 0.02 0.03 0.03 0.03 0.03 0.03 0.03 0.04 0.05 0.05 0.05 0.05 0.07 0.06 0.04 0.03 0.03 0.02 0.02 0.02 0.02 0.01 0.01 0.01 0.00 0.00 0.01 0.00 0.01 0.03 0.04 0.05 0.05 0.05 0.04
0.00 0.00 0.01 0.02 0.02 0.02 0.02 0.02 0.02 0.02 0.02 0.01 0.01 0.01 0.01 0.01 0.02 0.03 0.04 0.04 0.04 0.05 0.04 0.03 0.03 0.02 0.02 0.02 0.02 0.02 0.01 0.01 0.00 0.00 0.00 0.01 0.03 0.04 0.03 0.03 0.03 0.04 0.04
0.00 0.00 0.00 0.01 0.01 0.01 0.00 0.01 0.01 0.01 0.01 0.01 0.01 0.01 0.00 0.00 0.01 0.02 0.02 0.02 0.03 0.04 0.04 0.02 0.02 0.02 0.02 0.02 0.02 0.02 0.02 0.01 0.00 0.00 0.00 0.01 0.03 0.05 0.04 0.04 0.02 0.02 0.03
0.00 0.01 0.01 0.01 0.01 0.01 0.00 0.01 0.01 0.01 0.01 0.01 0.01 0.01 0.02 0.01 0.01 0.01 0.01 0.02 0.02 0.02 0.02 0.02 0.02 0.02 0.02 0.03 0.03 0.02 0.02 0.01 0.00 0.00 0.00 0.01 0.02 0.03 0.03 0.03 0.03 0.02 0.02
0.01 0.01 0.01 0.01 0.01 0.01 0.01 0.01 0.01 0.01 0.01 0.01 0.01 0.01 0.01 0.02 0.02 0.01 0.01 0.01 0.02 0.02 0.02 0.02 0.02 0.01 0.02 0.03 0.03 0.03 0.02 0.01 0.01 0.00 0.00 0.01 0.01 0.02 0.02 0.02 0.02 0.02 0.02
0.01 0.01 0.00 0.00 0.00 0.01 0.01 0.01 0.01 0.01 0.01 0.00 0.00 0.00 0.00 0.01 0.02 0.02 0.02 0.02 0.02 0.02 0.02 0.03 0.02 0.01 0.01 0.01 0.02 0.03 0.02 0.01 0.01 0.01 0.00 0.01 0.01 0.01 0.02 0.02 0.02 0.03 0.03
0.00 0.00 0.00 0.00 0.00 0.00 0.00 0.01 0.02 0.02 0.01 0.01 0.01 0.01 0.01 0.01 0.01 0.01 0.02 0.02 0.03 0.03 0.03 0.03 0.03 0.02 0.00 0.00 0.01 0.01 0.02 0.02 0.01 0.01 0.01 0.01 0.01 0.02 0.02 0.03 0.03 0.03 0.03
0.00 0.00 0.00 0.00 0.00 0.00 0.00 0.00 0.01 0.01 0.02 0.01 0.01 0.01 0.02 0.02 0.02 0.02 0.02 0.02 0.03 0.04 0.04 0.04 0.03 0.02 0.01 0.01 0.01 0.01 0.01 0.02 0.02 0.01 0.01 0.02 0.02 0.02 0.03 0.03 0.03 0.03 0.03
0.00 0.00 0.00 0.00 0.00 0.00 0.00 0.00 0.01 0.01 0.01 0.02 0.02 0.01 0.01 0.02 0.02 0.03 0.03 0.03 0.03 0.04 0.04 0.04 0.04 0.03 0.02 0.01 0.01 0.01 0.01 0.02 0.02 0.02 0.02 0.02 0.02 0.02 0.02 0.02 0.02 0.02 0.02
0.00 0.00 0.00 0.00 0.00 0.00 0.00 0.00 0.01 0.01 0.01 0.02 0.02 0.02 0.02 0.02 0.02 0.03 0.03 0.04 0.05 0.04 0.04 0.05 0.04 0.03 0.03 0.01 0.01 0.01 0.02 0.02 0.02 0.02 0.02 0.02 0.02 0.01 0.02 0.02 0.02 0.02 0.02
0.00 0.00 0.01 0.01 0.01 0.00 0.00 0.01 0.01 0.01 0.01 0.01 0.02 0.02 0.02 0.02 0.02 0.03 0.04 0.05 0.06 0.06 0.06 0.07 0.06 0.03 0.02 0.02 0.01 0.01 0.01 0.02 0.02 0.02 0.02 0.02 0.02 0.01 0.02 0.02 0.03 0.03 0.03
0.01 0.01 0.01 0.02 0.01 0.00 0.00 0.01 0.01 0.00 0.01 0.01 0.01 0.02 0.01 0.02 0.02 0.03 0.04 0.05 0.06 0.07 0.07 0.08 0.09 0.06 0.03 0.02 0.02 0.01 0.01 0.02 0.03 0.03 0.03 0.03 0.02 0.02 0.01 0.02 0.02 0.03 0.04
0.01 0.01 0.01 0.02 0.01 0.01 0.00 0.01 0.01 0.00 0.01 0.01 0.01 0.01 0.01 0.01 0.01 0.02 0.03 0.03 0.04 0.07 0.09 0.10 0.11 0.09 0.06 0.04 0.03 0.02 0.02 0.03 0.04 0.04 0.04 0.03 0.03 0.02 0.01 0.01 0.01 0.02 0.03
0.01 0.01 0.02 0.02 0.01 0.01 0.00 0.00 0.01 0.01 0.00 0.01 0.01 0.02 0.02 0.01 0.01 0.01 0.02 0.03 0.04 0.05 0.07 0.10 0.11 0.11 0.10 0.08 0.07 0.05 0.04 0.05 0.05 0.05 0.05 0.05 0.05 0.04 0.02 0.01 0.01 0.01 0.02
0.02 0.02 0.01 0.02 0.02 0.01 0.01 0.00 0.01 0.01 0.01 0.01 0.01 0.01 0.01 0.01 0.01 0.01 0.01 0.03 0.05 0.04 0.06 0.09 0.09 0.10 0.11 0.12 0.11 0.09 0.08 0.07 0.07 0.07 0.06 0.06 0.06 0.06 0.04 0.03 0.02 0.02 0.02
0.02 0.02 0.01 0.01 0.02 0.01 0.01 0.01 0.01 0.01 0.01 0.01 0.01 0.01 0.01 0.01 0.01 0.01 0.01 0.03 0.05 0.05 0.04 0.07 0.10 0.10 0.10 0.12 0.12 0.10 0.08 0.08 0.09 0.08 0.07 0.08 0.07 0.07 0.06 0.05 0.05 0.04 0.04
0.03 0.02 0.01 0.01 0.02 0.02 0.01 0.01 0.01 0.02 0.01 0.01 0.01 0.01 0.01 0.00 0.00 0.01 0.01 0.02 0.03 0.05 0.04 0.04 0.07 0.08 0.08 0.09 0.10 0.10 0.09 0.08 0.08 0.09 0.08 0.08 0.08 0.09 0.08 0.08 0.09 0.08 0.07
0.03 0.02 0.02 0.02 0.02 0.03 0.02 0.01 0.01 0.02 0.02 0.02 0.02 0.01 0.01 0.01 0.01 0.01 0.01 0.01 0.01 0.04 0.05 0.04 0.04 0.04 0.05 0.06 0.08 0.09 0.09 0.09 0.07 0.08 0.09 0.09 0.09 0.08 0.09 0.09 0.09 0.08 0.07
0.03 0.03 0.03 0.02 0.03 0.04 0.04 0.03 0.02 0.02 0.02 0.02 0.02 0.02 0.01 0.01 0.01 0.01 0.01 0.00 0.00 0.01 0.03 0.04 0.03 0.03 0.03 0.03 0.05 0.08 0.09 0.08 0.07 0.07 0.08 0.09 0.11 0.09 0.07 0.06 0.06 0.06 0.05
0.02 0.02 0.03 0.03 0.03 0.03 0.04 0.04 0.03 0.02 0.02 0.02 0.02 0.01 0.01 0.01 0.00 0.00 0.00 0.00 0.00 0.00 0.01 0.02 0.03 0.02 0.02 0.02 0.02 0.04 0.07 0.09 0.08 0.07 0.06 0.07 0.08 0.09 0.07 0.05 0.05 0.04 0.04
MSLP
1015.39 1015.31 1015.36 1015.56 1015.87 1016.24 1016.59 1016.88 1017.07 1017.15 1017.15 1017.11 1017.08 1017.09 1017.15 1017.26 1017.37 1017.44 1017.45 1017.37 1017.21 1017.02 1016.82 1016.68 1016.62 1016.66 1016.78 1016.94 1017.12 1017.27 1017.37 1017.42 1017.42 1017.40 1017.38 1017.38 1017.42 1017.48 1017.55 1017.62 1017.67 1017.71 1017.74
1014.90 1014.88 1015.00 1015.28 1015.66 1016.11 1016.53 1016.89 1017.14 1017.27 1017.32 1017.33 1017.36 1017.43 1017.55 1017.71 1017.87 1017.98 1018.02 1017.96 1017.83 1017.64 1017.44 1017.29 1017.22 1017.23 1017.32 1017.46 1017.60 1017.73 1017.81 1017.85 1017.86 1017.85 1017.85 1017.87 1017.92 1017.98 1018.04 1018.09 1018.11 1018.13 1018.14
1014.45 1014.48 1014.66 1015.00 1015.45 1015.96 1016.46 1016.88 1017.19 1017.40 1017.51 1017.58 1017.66 1017.78 1017.94 1018.13 1018.32 1018.46 1018.51 1018.47 1018.35 1018.17 1018.00 1017.85 1017.78 1017.79 1017.86 1017.97 1018.09 1018.18 1018.25 1018.27 1018.27 1018.27 1018.29 1018.32 1018.38 1018.44 1018.50 1018.54 1018.55 1018.55 1018.55
1014.13 1014.21 1014.44 1014.81 1015.30 1015.86 1016.40 1016.88 1017.25 1017.52 1017.70 1017.83 1017.95 1018.11 1018.29 1018.49 1018.67 1018.81 1018.86 1018.83 1018.73 1018.58 1018.44 1018.34 1018.29 1018.32 1018.40 1018.50 1018.60 1018.67 1018.71 1018.71 1018.70 1018.69 1018.71 1018.75 1018.81 1018.88 1018.94 1018.98 1018.99 1018.99 1018.99
1014.02 1014.14 1014.38 1014.78 1015.28 1015.84 1016.41 1016.91 1017.32 1017.64 1017.86 1018.04 1018.20 1018.38 1018.57 1018.75 1018.92 1019.03 1019.08 1019.05 1018.97 1018.87 1018.78 1018.74 1018.76 1018.83 1018.94 1019.06 1019.15 1019.21 1019.22 1019.20 1019.17 1019.15 1019.15 1019.19 1019.25 1019.32 1019.39 1019.44 1019.47 1019.48 1019.50
1014.12 1014.27 1014.53 1014.91 1015.40 1015.94 1016.49 1016.99 1017.41 1017.75 1018.01 1018.23 1018.42 1018.60 1018.79 1018.96 1019.10 1019.18 1019.21 1019.19 1019.14 1019.09 1019.07 1019.11 1019.21 1019.35 1019.52 1019.67 1019.78 1019.83 1019.82 1019.77 1019.71 1019.66 1019.64 1019.66 1019.72 1019.79 1019.87 1019.94 1020.00 1020.05 1020.10
1014.40 1014.57 1014.83 1015.19 1015.64 1016.14 1016.65 1017.12 1017.53 1017.88 1018.16 1018.41 1018.62 1018.83 1019.01 1019.17 1019.28 1019.35 1019.36 1019.34 1019.31 1019.32 1019.37 1019.49 1019.68 1019.90 1020.13 1020.33 1020.46 1020.52 1020.50 1020.43 1020.34 1020.26 1020.22 1020.22 1020.26 1020.34 1020.43 1020.52 1020.61 1020.70 1020.79
1014.76 1014.96 1015.22 1015.56 1015.97 1016.41 1016.86 1017.29 1017.69 1018.03 1018.34 1018.61 1018.87 1019.10 1019.31 1019.47 1019.57 1019.62 1019.62 1019.61 1019.60 1019.64 1019.75 1019.94 1020.20 1020.50 1020.79 1021.03 1021.19 1021.26 1021.24 1021.16 1021.04 1020.94 1020.87 1020.85 1020.88 1020.96 1021.06 1021.18 1021.31 1021.43 1021.56
1015.10 1015.33 1015.61 1015.94 1016.32 1016.71 1017.12 1017.51 1017.88 1018.23 1018.56 1018.88 1019.19 1019.47 1019.71 1019.90 1020.02 1020.07 1020.07 1020.05 1020.06 1020.12 1020.26 1020.49 1020.79 1021.13 1021.46 1021.74 1021.92 1022.01 1022.00 1021.91 1021.79 1021.68 1021.59 1021.56 1021.58 1021.66 1021.77 1021.90 1022.06 1022.22 1022.37
1015.31 1015.61 1015.92 1016.27 1016.63 1017.01 1017.38 1017.75 1018.11 1018.47 1018.84 1019.21 1019.59 1019.93 1020.24 1020.47 1020.62 1020.69 1020.70 1020.68 1020.68 1020.74 1020.88 1021.12 1021.43 1021.78 1022.13 1022.42 1022.63 1022.73 1022.74 1022.66 1022.55 1022.43 1022.34 1022.30 1022.32 1022.39 1022.50 1022.65 1022.81 1022.99 1023.17
1015.36 1015.73 1016.11 1016.50 1016.89 1017.26 1017.63 1017.99 1018.36 1018.75 1019.16 1019.59 1020.03 1020.46 1020.83 1021.12 1021.32 1021.43 1021.45 1021.44 1021.43 1021.47 1021.59 1021.80 1022.09 1022.43 1022.77 1023.06 1023.28 1023.40 1023.42 1023.38 1023.28 1023.18 1023.10 1023.05 1023.06 1023.12 1023.23 1023.37 1023.53 1023.71 1023.89
1015.23 1015.70 1016.17 1016.62 1017.06 1017.47 1017.86 1018.24 1018.62 1019.04 1019.49 1019.98 1020.48 1020.97 1021.41 1021.77 1022.03 1022.17 1022.22 1022.22 1022.21 1022.24 1022.33 1022.50 1022.76 1023.06 1023.37 1023.65 1023.87 1024.01 1024.06 1024.05 1023.98 1023.90 1023.83 1023.79 1023.79 1023.83 1023.91 1024.03 1024.17 1024.33 1024.51
1014.97 1015.54 1016.11 1016.65 1017.16 1017.63 1018.05 1018.46 1018.87 1019.31 1019.79 1020.32 1020.86 1021.40 1021.90 1022.31 1022.62 1022.82 1022.91 1022.93 1022.94 1022.96 1023.03 1023.18 1023.39 1023.66 1023.95 1024.22 1024.44 1024.59 1024.67 1024.69 1024.66 1024.60 1024.54 1024.50 1024.48 1024.49 1024.54 1024.62 1024.73 1024.86 1025.01
1014.62 1015.29 1015.96 1016.60 1017.19 1017.73 1018.21 1018.65 1019.09 1019.55 1020.04 1020.58 1021.14 1021.70 1022.22 1022.67 1023.03 1023.27 1023.42 1023.49 1023.53 1023.57 1023.66 1023.79 1024.00 1024.24 1024.51 1024.78 1025.00 1025.18 1025.29 1025.33 1025.33 1025.30 1025.25 1025.20 1025.15 1025.13 1025.13 1025.16 1025.23 1025.32 1025.44
1014.21 1014.98 1015.74 1016.48 1017.16 1017.77 1018.31 1018.80 1019.27 1019.74 1020.23 1020.75 1021.30 1021.84 1022.37 1022.83 1023.22 1023.51 1023.72 1023.85 1023.96 1024.06 1024.18 1024.35 1024.56 1024.82 1025.09 1025.36 1025.60 1025.79 1025.93 1026.00 1026.03 1026.01 1025.96 1025.90 1025.83 1025.77 1025.72 1025.70 1025.71 1025.76 1025.84
1013.77 1014.61 1015.46 1016.28 1017.04 1017.73 1018.34 1018.88 1019.38 1019.86 1020.35 1020.84 1021.35 1021.86 1022.35 1022.81 1023.21 1023.55 1023.82 1024.04 1024.23 1024.41 1024.61 1024.83 1025.09 1025.38 1025.68 1025.96 1026.23 1026.44 1026.60 1026.70 1026.74 1026.73 1026.69 1026.61 1026.52 1026.42 1026.34 1026.27 1026.23 1026.24 1026.28
1013.26 1014.16 1015.08 1015.97 1016.81 1017.58 1018.27 1018.88 1019.43 1019.93 1020.41 1020.88 1021.34 1021.81 1022.26 1022.69 1023.10 1023.47 1023.80 1024.10 1024.38 1024.66 1024.95 1025.25 1025.58 1025.92 1026.25 1026.57 1026.85 1027.09 1027.27 1027.39 1027.45 1027.46 1027.41 1027.33 1027.23 1027.11 1026.99 1026.90 1026.83 1026.80 1026.81
1012.67 1013.61 1014.57 1015.52 1016.43 1017.29 1018.07 1018.77 1019.38 1019.93 1020.43 1020.89 1021.32 1021.74 1022.15 1022.56 1022.96 1023.35 1023.73 1024.10 1024.47 1024.85 1025.23 1025.61 1026.00 1026.39 1026.77 1027.12 1027.43 1027.69 1027.89 1028.03 1028.10 1028.12 1028.09 1028.02 1027.92 1027.80 1027.68 1027.57 1027.49 1027.44 1027.43
1011.94 1012.90 1013.89 1014.90 1015.88 1016.83 1017.71 1018.51 1019.23 1019.85 1020.39 1020.87 1021.29 1021.69 1022.08 1022.46 1022.85 1023.25 1023.67 1024.10 1024.54 1024.99 1025.44 1025.90 1026.34 1026.77 1027.18 1027.55 1027.88 1028.15 1028.37 1028.53 1028.63 1028.67 1028.66 1028.62 1028.54 1028.44 1028.34 1028.25 1028.17 1028.12 1028.09
1011.06 1012.04 1013.05 1014.10 1015.16 1016.19 1017.19 1018.10 1018.93 1019.66 1020.27 1020.80 1021.25 1021.65 1022.03 1022.41 1022.80 1023.22 1023.66 1024.12 1024.61 1025.10 1025.59 1026.08 1026.55 1027.00 1027.42 1027.81 1028.15 1028.44 1028.67 1028.85 1028.98 1029.05 1029.08 1029.07 1029.04 1028.98 1028.92 1028.86 1028.81 1028.76 1028.73
1010.06 1011.04 1012.08 1013.16 1014.28 1015.40 1016.50 1017.54 1018.48 1019.32 1020.03 1020.64 1021.14 1021.58 1021.98 1022.38 1022.78 1023.21 1023.67 1024.15 1024.65 1025.16 1025.66 1026.16 1026.63 1027.07 1027.49 1027.87 1028.21 1028.51 1028.76 1028.97 1029.13 1029.24 1029.31 1029.35 1029.37 1029.37 1029.36 1029.34 1029.32 1029.30 1029.27
1009.00 1009.98 1011.03 1012.15 1013.31 1014.51 1015.69 1016.83 1017.89 1018.83 1019.64 1020.33 1020.91 1021.41 1021.86 1022.29 1022.73 1023.18 1023.65 1024.15 1024.65 1025.15 1025.64 1026.11 1026.56 1026.98 1027.38 1027.75 1028.09 1028.39 1028.66 1028.89 1029.09 1029.24 1029.36 1029.45 1029.52 1029.57 1029.61 1029.64 1029.66 1029.66 1029.64
1007.96 1008.95 1010.01 1011.15 1012.34 1013.58 1014.82 1016.03 1017.16 1018.18 1019.08 1019.84 1020.50 1021.07 1021.59 1022.08 1022.56 1023.05 1023.55 1024.06 1024.56 1025.05 1025.52 1025.96 1026.37 1026.76 1027.14 1027.49 1027.83 1028.14 1028.43 1028.69 1028.91 1029.10 1029.26 1029.39 1029.51 1029.60 1029.68 1029.75 1029.79 1029.82 1029.82
1007.03 1008.04 1009.11 1010.25 1011.45 1012.70 1013.96 1015.19 1016.35 1017.42 1018.36 1019.18 1019.90 1020.54 1021.13 1021.69 1022.23 1022.78 1023.32 1023.86 1024.37 1024.85 1025.30 1025.71 1026.10 1026.47 1026.82 1027.17 1027.51 1027.84 1028.15 1028.44 1028.69 1028.91 1029.10 1029.26 1029.39 1029.51 1029.61 1029.70 1029.77 1029.81 1029.81
1006.28 1007.31 1008.38 1009.52 1010.71 1011.94 1013.18 1014.39 1015.54 1016.59 1017.55 1018.39 1019.15 1019.84 1020.49 1021.12 1021.74 1022.35 1022.95 1023.53 1024.06 1024.56 1025.00 1025.41 1025.79 1026.14 1026.50 1026.85 1027.21 1027.56 1027.89 1028.20 1028.48 1028.73 1028.93 1029.10 1029.25 1029.37 1029.48 1029.57 1029.63 1029.68 1029.69
1005.75 1006.78 1007.86 1008.98 1010.14 1011.33 1012.52 1013.68 1014.78 1015.79 1016.71 1017.54 1018.31 1019.03 1019.73 1020.42 1021.11 1021.79 1022.45 1023.08 1023.66 1024.18 1024.65 1025.07 1025.45 1025.82 1026.19 1026.57 1026.95 1027.33 1027.69 1028.03 1028.33 1028.59 1028.80 1028.98 1029.11 1029.23 1029.33 1029.41 1029.47 1029.51 1029.52
Thickness
5648 5651 5653 5655 5657 5659 5661 5662 5663 5664 5665 5667 5669 5670 5672 5673 5675 5677 5678 5680 5681 5683 5685 5686 5687 5688 5689 5690 5690 5691 5691 5692 5693 5694 5695 5696 5697 5698 5698 5699 5700 5700 5701
5646 5648 5649 5651 5653 5655 5656 5657 5658 5659 5660 5662 5664 5666 5667 5668 5670 5671 5673 5675 5676 5678 5679 5681 5682 5683 5684 5685 5685 5686 5686 5687 5687 5689 5690 5691 5692 5693 5694 5695 5695 5696 5697
5643 5644 5646 5647 5649 5650 5651 5652 5653 5654 5655 5657 5658 5660 5662 5663 5665 5666 5667 5669 5671 5672 5674 5675 5677 5678 5679 5679 5680 5680 5681 5681 5682 5683 5685 5686 5687 5688 5689 5690 5691 5692 5693
5639 5640 5641 5643 5644 5645 5646 5647 5648 5649 5650 5651 5653 5654 5656 5658 5659 5661 5662 5663 5665 5666 5668 5670 5671 5672 5673 5674 5674 5675 5675 5676 5677 5678 5679 5680 5682 5684 5685 5686 5686 5687 5688
5635 5635 5636 5637 5639 5640 5640 5641 5642 5643 5644 5646 5647 5648 5650 5651 5653 5654 5655 5657 5659 5660 5662 5663 5665 5666 5667 5668 5668 5669 5669 5670 5671 5673 5674 5675 5677 5679 5680 5681 5682 5682 5683
5629 5630 5630 5632 5633 5633 5634 5635 5636 5637 5638 5640 5641 5642 5644 5645 5646 5648 5649 5651 5652 5654 5656 5657 5658 5659 5660 5661 5662 5663 5663 5664 5666 5667 5668 5670 5672 5674 5675 5676 5677 5677 5678
5623 5624 5624 5625 5626 5627 5628 5628 5629 5630 5631 5633 5634 5635 5637 5638 5639 5641 5642 5644 5646 5647 5649 5650 5651 5652 5653 5654 5655 5656 5657 5658 5660 5661 5663 5665 5667 5669 5670 5670 5671 5672 5673
5617 5617 5618 5618 5619 5620 5621 5621 5622 5623 5624 5625 5626 5627 5628 5629 5631 5633 5635 5636 5638 5640 5642 5643 5644 5645 5646 5648 5648 5649 5650 5652 5653 5655 5657 5658 5661 5663 5664 5665 5666 5666 5667
5610 5610 5610 5611 5611 5612 5612 5613 5614 5615 5616 5617 5618 5619 5620 5621 5623 5625 5627 5629 5631 5632 5634 5636 5637 5638 5639 5641 5642 5642 5643 5645 5647 5648 5650 5652 5654 5656 5658 5659 5659 5660 5661
5602 5602 5603 5603 5604 5604 5604 5605 5605 5606 5607 5608 5609 5610 5611 5612 5614 5616 5618 5620 5622 5624 5626 5628 5629 5630 5632 5633 5634 5635 5636 5638 5640 5641 5643 5645 5648 5649 5651 5652 5653 5654 5655
5594 5594 5595 5595 5596 5596 5596 5596 5596 5597 5598 5599 5600 5600 5602 5603 5605 5606 5608 5611 5613 5615 5617 5619 5621 5622 5624 5625 5626 5628 5629 5630 5632 5634 5636 5638 5640 5642 5644 5645 5646 5647 5648
5586 5586 5587 5587 5587 5588 5588 5587 5588 5588 5589 5589 5590 5591 5592 5593 5595 5596 5598 5601 5603 5606 5608 5610 5612 5614 5616 5616 5618 5619 5621 5622 5624 5625 5628 5631 5633 5635 5636 5638 5639 5641 5642
5579 5579 5579 5579 5579 5579 5579 5579 5579 5579 5579 5580 5581 5582 5583 5584 5585 5587 5589 5591 5593 5596 5598 5600 5603 5605 5606 5608 5609 5610 5612 5614 5615 5617 5620 5622 5625 5627 5628 5630 5632 5633 5634
5572 5571 5571 5571 5570 5570 5571 5570 5570 5570 5570 5571 5572 5573 5574 5575 5576 5577 5578 5580 5583 5585 5588 5591 5593 5595 5597 5599 5600 5601 5603 5604 5607 5609 5611 5614 5617 5619 5620 5622 5623 5625 5626
5565 5563 5562 5562 5562 5562 5562 5562 5561 5561 5561 5562 5562 5563 5564 5565 5566 5567 5569 5570 5573 5575 5578 5581 5583 5586 5588 5590 5591 5593 5594 5595 5597 5600 5602 5605 5607 5610 5611 5613 5615 5616 5617
5558 5556 5555 5554 5554 5553 5553 5553 5552 5552 5552 5553 5553 5554 5554 5555 5556 5558 5559 5561 5563 5565 5568 5571 5573 5575 5578 5580 5581 5583 5584 5586 5588 5590 5593 5595 5598 5600 5602 5603 5605 5607 5608
5552 5549 5547 5546 5545 5544 5544 5544 5543 5543 5543 5543 5543 5544 5545 5546 5547 5548 5550 5551 5553 5555 5559 5561 5563 5566 5568 5569 5571 5573 5575 5576 5578 5580 5582 5585 5587 5589 5591 5593 5595 5596 5598
5545 5542 5540 5539 5536 5535 5535 5534 5534 5534 5534 5533 5533 5534 5535 5536 5537 5538 5540 5541 5543 5545 5548 5551 5552 5554 5556 5557 5559 5561 5564 5566 5568 5570 5572 5574 5576 5578 5580 5582 5583 5585 5586
5538 5535 5533 5531 5528 5526 5525 5524 5524 5523 5523 5523 5524 5524 5524 5525 5527 5528 5529 5530 5532 5534 5537 5539 5540 5543 5543 5546 5548 5550 5552 5554 5556 5558 5561 5563 5564 5566 5568 5569 5571 5573 5574
5530 5527 5525 5522 5519 5517 5516 5515 5513 5513 5512 5513 5513 5513 5514 5515 5516 5517 5519 5520 5521 5523 5525 5527 5528 5530 5531 5533 5536 5538 5540 5542 5544 5546 5548 5550 5552 5553 5555 5557 5559 5560 5562
5522 5520 5517 5515 5512 5510 5507 5505 5503 5501 5501 5501 5502 5503 5503 5504 5505 5506 5507 5508 5509 5511 5512 5514 5516 5517 5517 5520 5522 5525 5527 5529 5531 5533 5534 5536 5538 5539 5541 5543 5545 5547 5549
5516 5513 5510 5507 5505 5503 5500 5498 5495 5492 5490 5490 5490 5491 5491 5492 5493 5494 5495 5495 5496 5498 5499 5500 5502 5502 5502 5504 5504 5508 5511 5516 5517 5519 5521 5522 5524 5526 5527 5529 5531 5533 5535
5509 5506 5504 5500 5497 5495 5492 5489 5486 5483 5480 5479 5479 5479 5479 5480 5481 5481 5482 5483 5484 5485 5485 5487 5487 5488 5488 5488 5489 5490 5493 5496 5498 5505 5507 5508 5509 5511 5512 5514 5516 5518 5520
5503 5499 5496 5492 5489 5486 5484 5481 5479 5475 5471 5469 5468 5467 5467 5468 5468 5469 5470 5471 5471 5472 5472 5473 5474 5474 5474 5474 5474 5474 5474 5475 5479 5486 5492 5493 5494 5496 5497 5499 5501 5503 5505
5495 5491 5487 5484 5480 5477 5474 5472 5469 5465 5462 5459 5457 5456 5456 5456 5456 5456 5457 5458 5458 5459 5459 5460 5460 5461 5461 5460 5459 5459 5460 5461 5462 5465 5473 5476 5478 5481 5482 5484 5485 5487 5489
5485 5481 5478 5474 5471 5468 5464 5462 5459 5455 5452 5449 5447 5445 5444 5444 5444 5444 5445 5446 5446 5446 5446 5446 5447 5447 5447 5446 5445 5445 5445 5446 5447 5448 5452 5456 5460 5464 5466 5468 5469 5471 5473